Regional Weather Roundup
Issued by NWS Charleston, WV

Home | Current Version | Previous Version | Graphics & Text | Print | Product List | Glossary On
Versions: 1 2 3 4 5 6 7 8 9 10 11 12 13 14 15 16 17 18 19 20 21 22 23 24 25 26 27 28 29 30 31 32 33 34 35 36 37 38 39 40 41 42 43 44 45 46 47 48 49 50
000
ASUS41 KRLX 292110
RWRRLX
West Virginia Regional Weather Roundup
National Weather Service Charleston WV
500 PM EDT SAT AUG 29 2015

Note: "fair" indicates few or no clouds below 12,000 feet with no
significant weather and/or obstructions to visibility.

WVZ003-292200-
Northern Panhandle of West Virginia

CITY           SKY/WX    TMP DP  RH WIND       PRES   REMARKS
WHEELING         N/A     82  63  52 CALM      30.11F
$$

WVZ009-292200-
Northwest West Virginia

CITY           SKY/WX    TMP DP  RH WIND       PRES   REMARKS
PARKERSBURG      N/A     86  61  42 SW8       30.12F
$$

WVZ006-292200-
Western West Virginia

CITY           SKY/WX    TMP DP  RH WIND       PRES   REMARKS
HUNTINGTON       N/A     86  64  47 S6        30.09F
$$

WVZ015-292200-
West Central West Virginia

CITY           SKY/WX    TMP DP  RH WIND       PRES   REMARKS
CHARLESTON       N/A     85  62  46 S8        30.11F
$$

WVZ022-031-292200-
North Central West Virginia

CITY           SKY/WX    TMP DP  RH WIND       PRES   REMARKS
CLARKSBURG       N/A     86  56  35 S7        30.12F
MORGANTOWN       N/A     87  55  33 S9        30.13F
$$

WVZ025-035-042-045-292200-
Southern West Virginia

CITY           SKY/WX    TMP DP  RH WIND       PRES   REMARKS
BECKLEY          N/A     78  59  51 W3        30.21F
LOGAN            N/A     81  64  57 VRB3      30.16F
BLUEFIELD      CLOUDY    78  59  51 NW5       30.24F
LEWISBURG        N/A     80  56  43 W3        30.20F
$$

WVZ047-292200-
Northern Mountains of West Virginia

CITY           SKY/WX    TMP DP  RH WIND       PRES   REMARKS
ELKINS           N/A     82  56  40 SW6       30.18F
$$

WVZ052-292200-
Eastern Panhandle of West Virginia

CITY           SKY/WX    TMP DP  RH WIND       PRES   REMARKS
MARTINSBURG      N/A     87  57  35 VRB5      30.10F
PETERSBURG       N/A     82  67  62 CALM      30.12S
$$


USA.gov is the U.S. government's official web portal to all federal, state and local government web resources and services.